STARLINK-11244, 60926

Orbit data source: Space-Track

STARLINK-11244, 60926 is a payload satellite owned by SpaceX/Seattle (US) in LEO that was launched on Sat, 31 Aug 2024 UTC via an FALCON 9 launch vehicle from the Air Force Western Test Range (AFWTR). Payloads include a variety of satellites, spacecraft, and rockets equipped with specific instruments for various scientific and technological missions. These include communications satellites like Starlink; space stations such as the ISS; scientific satellites like the Hubble; Earth observation satellites from companies like Planet Labs, Umbra, and HawkEye 360; GPS; miniature CubeSats for education and research; and military/defense satellites.

Loading next visibility...
STARLINK-11244 details
Identifier
60926, 2024-155C
Orbit
LEO
Last TLE update14 hours ago
Origin
Flag of USSpaceX/Seattle (US)
ManufacturerSpaceX/Seattle
MissionOperational spacecraft
Bus & MotorSTARLINK V2M, Unknown motor
Mass730 kg wet, ~700 kg dry
Launch date (UTC)
2024-08-31 (5 months ago)
Launch vehicle
FALCON 9
Launch site
Air Force Western Test Range (AFWTR)
Object type
Payload
Rocket body
Debris
Shape & HBRUnknown
Radar Cross SectionLarge (>1 m²)

Expand to show TLE details & history

TLE from 14 hours ago
0 STARLINK-11244
1 60926U 24155C   25015.01480447 -.00000408  00000-0  14928-5 0  9993
2 60926  53.1578 245.2523 0001134  81.2834 278.8312 15.69704509 22687
Epoch: 2025-01-15T00:21Z
Definitive object data (Epoch: 2025-01-15T00:21:19.106Z)
Latitude-0.00003°
Longitude125.20945°
Altitude360.54 km
Speed7.694 km/s
True Right ascension16h 21m 00s
True Declination0° 00' 00"
Sunlit
Object was in daylight at TLE epoch
Visualization TLE readout
Latitude52.73111°
Longitude-135.96906°
Altitude365.423 km
Speed7.697 km/s
Apparent Right ascension01h 16m 53s
Apparent Declination9° 27' 18"
Sunlit
Object is in daylight
Visualization observer readout
Local Sidereal Time15:11:52
Azimuth34.862° NE
Elevation-33.913°
Doppler factor1
Orbital elements
Apogee altitude360.768 km
Perigee altitude359.239 km
Semi-major axis6,738.141 km
Eccentricity0.0001134
Inclination53.1578°
RAAN245.2523°
Arg. of periapsis81.2834°
True anomaly278.81836°
Mean anomaly278.8312°
Eccentric anomaly278.82478°
Mean motion3.92404 °/min
BSTAR0.0000014928
Orbital period91.74 mins
Loading maneuver chart data...
Loading historical data...
Loading historical data...
Loading historical data...
Loading historical data...
Loading historical data...
Loading historical data...
Loading historical data...

STARLINK-11244 Visibility forecast

Observer location: undefined°, undefined

Span
Click to sort rows by Start time (UTC) header in descending order
Start Az.
Max El. time (UTC)
Max El. Az.
Max El.
End time (UTC)
End Az.
4 mins2025-01-15 17:20:10.224Z187.911° SSW2025-01-15 17:22:10.224Z126.128° SE26.355°2025-01-15 17:24:10.224Z74.449° E
|